Tracking 20712 objects as of 28-May-2020
HD Live streaming from Space Station
objects crossing your sky now

DELTA 1 DEB

Track DELTA 1 DEB now!
10-day predictions


NORAD ID: 10221
Int'l Code: 1977-065AY
Perigee: 488.6 km
Apogee: 1,126.2 km
Inclination: 29.0 °
Period: 100.9 minutes
Semi major axis: 7178 km
RCS: 0.0303 m2 (small)
Launch date: July 14, 1977
Source: United States (US)
Launch site: AIR FORCE EASTERN TEST RANGE (AFETR)

Note: This is SATELLITE DEBRIS
aabbcc
Your satellite tracking list
Your tracking list is empty




NASA's NSSDC Master Catalog

Two Line Element Set (TLE):
1 10221U 77065AY  20148.08953917 +.00000566 +00000-0 +56601-4 0  9997
2 10221 029.0339 065.4749 0444117 164.2048 197.2886 14.27451696153246
Source of the keplerian elements: AFSPC